Time[GMT],salinity[psu](1m),sigma_t[kg/m^3](1m),conductivity[msiemens/cm](1m),temperature[C](1m)
2014-06-03 13:00,29.390,22.160,34.531,12.42
2014-06-03 14:00,29.398,22.094,34.863,12.81
2014-06-03 15:00,29.432,22.065,35.141,13.10
2014-06-03 16:00,29.350,21.932,35.352,13.46
2014-06-03 17:00,29.355,21.934,35.366,13.47
2014-06-03 18:00,29.324,21.895,35.399,13.55
2014-06-03 19:00,29.304,21.850,35.503,13.70
2014-06-03 20:00,29.343,21.902,35.453,13.59
2014-06-03 21:00,29.357,21.955,35.285,13.37
2014-06-03 22:00,29.355,21.971,35.208,13.28
2014-06-03 23:00,29.361,22.012,35.056,13.09
2014-06-04 00:00,29.373,22.022,35.069,13.09
2014-06-04 01:00,29.371,22.011,35.109,13.14
2014-06-04 02:00,29.386,22.054,34.983,12.97
2014-06-04 03:00,29.376,22.053,34.948,12.94
2014-06-04 04:00,29.378,22.069,34.883,12.86
2014-06-04 05:00,29.377,22.072,34.866,12.84
2014-06-04 06:00,29.395,22.090,34.868,12.82
2014-06-04 07:00,29.427,22.120,34.877,12.79
2014-06-04 08:00,29.444,22.122,34.946,12.85
2014-06-04 09:00,29.464,22.151,34.909,12.78
2014-06-04 10:00,29.468,22.140,34.971,12.85
2014-06-04 11:00,29.456,22.127,34.975,12.87
2014-06-04 12:00,29.450,22.121,34.977,12.88
2014-06-04 13:00,29.450,22.110,35.027,12.94
2014-06-04 14:00,29.448,22.103,35.050,12.97
2014-06-04 15:00,29.439,22.090,35.065,13.00
2014-06-04 16:00,29.437,22.083,35.088,13.03
2014-06-04 17:00,29.427,22.062,35.136,13.10
2014-06-04 18:00,29.410,22.045,35.134,13.12
2014-06-04 19:00,29.340,22.017,34.942,12.98
2014-06-04 20:00,29.323,21.971,35.065,13.15
2014-06-04 21:00,29.333,21.964,35.142,13.23
2014-06-04 22:00,29.450,22.052,35.277,13.24
2014-06-04 23:00,29.452,22.067,35.221,13.17
2014-06-05 00:00,29.460,22.075,35.221,13.16
2014-06-05 01:00,29.452,22.052,35.288,13.25
2014-06-05 02:00,29.453,22.066,35.230,13.18
2014-06-05 03:00,29.340,21.961,35.183,13.27
2014-06-05 04:00,29.362,21.965,35.265,13.34
2014-06-05 05:00,29.375,21.983,35.246,13.30
2014-06-05 06:00,29.362,21.965,35.265,13.34
2014-06-05 07:00,29.359,21.973,35.221,13.29
2014-06-05 09:00,29.388,22.018,35.152,13.17
2014-06-05 10:00,29.460,22.085,35.179,13.11
2014-06-05 11:00,29.439,22.070,35.148,13.10
2014-06-05 12:00,29.436,22.084,35.079,13.02
2014-06-05 13:00,29.438,22.097,35.031,12.96
2014-06-05 14:00,29.440,22.062,35.191,13.15
2014-06-05 15:00,29.387,21.994,35.251,13.29
2014-06-05 16:00,29.222,21.859,35.105,13.33
2014-06-05 17:00,29.025,21.681,34.999,13.46
2014-06-05 18:00,28.876,21.591,34.730,13.33
2014-06-05 19:00,29.027,21.739,34.762,13.17
2014-06-05 20:00,29.008,21.772,34.536,12.92
2014-06-05 21:00,28.967,21.801,34.221,12.59
2014-06-05 22:00,29.063,21.989,33.816,11.97
2014-06-05 23:00,28.978,21.865,33.988,12.29
2014-06-06 00:00,29.212,22.048,34.227,12.28
2014-06-06 01:00,29.602,22.406,34.381,11.97
2014-06-06 02:00,29.873,22.654,34.489,11.76
2014-06-06 03:00,29.873,22.654,34.489,11.76
2014-06-06 04:00,29.905,22.702,34.413,11.63
2014-06-06 05:00,29.759,22.571,34.345,11.73
2014-06-06 06:00,29.474,22.330,34.139,11.84
2014-06-06 07:00,29.275,22.150,34.055,11.99
2014-06-06 08:00,29.620,22.475,34.142,11.66
2014-06-06 09:00,29.994,22.829,34.230,11.30
2014-06-06 10:00,30.131,22.974,34.186,11.08
2014-06-06 11:00,29.630,22.618,33.508,10.88
2014-06-06 12:00,29.488,22.498,33.412,10.94
2014-06-06 13:00,29.727,22.706,33.549,10.81
2014-06-06 14:00,30.123,23.083,33.601,10.39
2014-06-06 15:00,29.823,22.707,34.004,11.24
2014-06-06 16:00,29.430,22.180,34.623,12.48
2014-06-06 17:00,29.346,22.052,34.816,12.82
2014-06-06 18:00,30.431,23.107,34.976,11.65
2014-06-06 19:00,30.752,23.363,35.274,11.61
2014-06-06 20:00,29.918,22.466,35.554,12.97
2014-06-06 21:00,29.795,22.328,35.607,13.19
2014-06-06 22:00,29.771,22.399,35.186,12.72
2014-06-06 23:00,29.994,22.652,35.061,12.29
2014-06-07 00:00,30.211,23.012,34.386,11.22
2014-06-07 01:00,29.130,21.805,34.931,13.24
2014-06-07 02:00,29.200,21.720,35.597,13.95
2014-06-07 03:00,27.960,20.679,34.576,14.38
2014-06-07 04:00,27.093,20.092,33.286,13.97
2014-06-07 05:00,28.231,21.122,33.909,13.18
2014-06-07 06:00,28.760,21.634,34.033,12.63
2014-06-07 08:00,29.075,21.935,34.115,12.32
2014-06-07 09:00,28.900,21.752,34.142,12.58
2014-06-07 10:00,28.893,21.767,34.045,12.47
2014-06-07 11:00,28.805,21.650,34.163,12.73
2014-06-07 12:00,28.817,21.613,34.380,12.98
2014-06-07 13:00,28.778,21.411,35.067,13.87
2014-06-07 14:00,28.565,21.123,35.341,14.49
2014-06-07 15:00,28.272,20.747,35.608,15.22
2014-06-07 16:00,28.021,20.481,35.608,15.57
2014-06-07 17:00,27.875,20.294,35.724,15.92
2014-06-07 18:00,27.821,20.189,35.896,16.21
2014-06-07 19:00,27.851,20.208,35.947,16.23
2014-06-07 20:00,28.053,20.415,35.986,15.99
2014-06-07 21:00,28.460,20.862,35.937,15.36
2014-06-07 22:00,28.750,21.221,35.729,14.71
2014-06-07 23:00,28.850,21.340,35.667,14.50
2014-06-08 00:00,28.858,21.385,35.518,14.31
2014-06-08 01:00,28.836,21.362,35.519,14.34
2014-06-08 03:00,28.581,21.143,35.326,14.45
2014-06-08 04:00,28.524,21.127,35.147,14.31
2014-06-08 05:00,28.433,21.042,35.112,14.39
2014-06-08 06:00,28.390,21.023,35.007,14.32
2014-06-08 07:00,28.417,21.029,35.094,14.39
2014-06-08 08:00,28.570,21.223,34.953,14.01
2014-06-08 09:00,28.457,21.110,34.934,14.14
2014-06-08 10:00,28.450,21.058,35.114,14.37
2014-06-08 11:00,28.525,21.098,35.271,14.46
2014-06-08 12:00,28.396,21.023,35.030,14.34
2014-06-08 13:00,28.193,20.856,34.844,14.39
2014-06-08 14:00,28.234,20.850,35.044,14.58
2014-06-08 15:00,28.322,20.895,35.232,14.69
2014-06-08 16:00,28.253,20.790,35.358,14.94
2014-06-08 17:00,28.482,20.639,36.880,16.47
2014-06-08 18:00,28.002,19.908,37.626,18.06
2014-06-08 19:00,28.124,20.136,37.293,17.48
2014-06-08 20:00,28.212,20.329,36.943,16.93
2014-06-08 21:00,,,,
2014-06-08 22:00,28.355,20.620,36.434,16.11
2014-06-08 23:00,28.423,20.737,36.265,15.81
2014-06-09 00:00,28.448,20.825,36.030,15.49
2014-06-09 01:00,28.512,20.908,35.972,15.33
2014-06-09 02:00,28.611,20.980,36.101,15.35
2014-06-09 03:00,28.693,21.083,36.037,15.16
2014-06-09 04:00,28.760,21.184,35.913,14.92
2014-06-09 05:00,28.860,21.352,35.661,14.48
2014-06-09 06:00,28.893,21.402,35.599,14.36
2014-06-09 07:00,28.898,21.409,35.587,14.34
2014-06-09 08:00,28.921,21.413,35.671,14.41
2014-06-09 09:00,28.871,21.359,35.682,14.49
2014-06-09 10:00,28.872,21.351,35.716,14.53
2014-06-09 11:00,28.912,21.381,35.760,14.53
2014-06-09 12:00,29.013,21.419,36.040,14.73
2014-06-09 13:00,29.016,21.371,36.243,14.97
2014-06-09 14:00,28.996,21.326,36.337,15.11
2014-06-09 15:00,28.978,21.306,36.342,15.14
2014-06-09 16:00,28.996,21.277,36.529,15.34
2014-06-09 17:00,29.004,21.267,36.606,15.42
2014-06-09 18:00,29.058,21.317,36.633,15.38
2014-06-09 19:00,29.054,21.310,36.646,15.40
2014-06-09 20:00,29.066,21.338,36.584,15.31
2014-06-09 21:00,29.073,21.356,36.542,15.25
2014-06-09 22:00,,,,
2014-06-09 23:00,29.088,21.447,36.240,14.87
2014-06-10 00:00,29.112,21.476,36.226,14.82
2014-06-10 01:00,29.119,21.533,36.025,14.57
2014-06-10 02:00,29.121,21.489,36.211,14.79
2014-06-10 03:00,29.073,21.463,36.115,14.74
2014-06-10 04:00,29.070,21.483,36.020,14.63
2014-06-10 05:00,29.064,21.487,35.980,14.59
2014-06-10 06:00,29.077,21.513,35.928,14.51
2014-06-10 07:00,29.082,21.529,35.883,14.45
2014-06-10 08:00,29.072,21.532,35.831,14.40
2014-06-10 09:00,29.087,21.549,35.822,14.37
2014-06-10 10:00,29.093,21.555,35.820,14.36
2014-06-10 11:00,29.095,21.553,35.839,14.38
2014-06-10 12:00,29.098,21.553,35.851,14.39
2014-06-10 13:00,29.103,21.553,35.873,14.41
2014-06-10 14:00,29.098,21.507,36.043,14.62
2014-06-10 15:00,29.095,21.438,36.307,14.94
2014-06-10 16:00,29.124,21.408,36.549,15.19
2014-06-10 17:00,29.004,21.296,36.488,15.28
2014-06-10 18:00,29.054,21.272,36.797,15.58
2014-06-10 20:00,28.964,21.116,37.029,15.98
2014-06-10 21:00,28.962,21.185,36.750,15.65
2014-06-10 22:00,29.044,21.353,36.433,15.16
2014-06-10 23:00,29.090,21.482,36.109,14.71
2014-06-11 00:00,29.132,21.523,36.123,14.67
2014-06-11 01:00,29.160,21.563,36.079,14.58
2014-06-11 02:00,29.188,21.603,36.035,14.49
2014-06-11 03:00,29.232,21.691,35.858,14.22
2014-06-11 04:00,29.269,21.731,35.848,14.16
2014-06-11 05:00,29.283,21.760,35.788,14.07
2014-06-11 06:00,29.330,21.817,35.757,13.97
2014-06-11 07:00,29.314,21.795,35.781,14.02
2014-06-11 08:00,29.326,21.820,35.727,13.94
2014-06-11 09:00,29.364,21.894,35.576,13.71
2014-06-11 10:00,29.413,21.961,35.504,13.56
2014-06-11 11:00,29.440,21.998,35.467,13.48
2014-06-11 12:00,29.495,22.076,35.376,13.30
2014-06-11 13:00,29.595,22.193,35.308,13.09
2014-06-11 14:00,29.709,22.302,35.338,12.98
2014-06-11 15:00,29.723,22.255,35.605,13.28
2014-06-11 16:00,29.639,22.051,36.113,13.99
2014-06-11 17:00,29.689,22.214,35.636,13.36
2014-06-11 18:00,29.702,22.230,35.625,13.33
2014-06-11 19:00,29.706,22.246,35.570,13.26
2014-06-11 20:00,29.936,22.334,36.209,13.72
2014-06-11 21:00,29.723,22.130,36.146,13.92
2014-06-11 22:00,29.632,22.005,36.274,14.19
2014-06-11 23:00,29.724,22.154,36.045,13.80
2014-06-12 00:00,29.711,22.069,36.353,14.18
2014-06-12 01:00,29.685,22.118,36.028,13.83
2014-06-12 02:00,29.233,21.407,37.009,15.59
2014-06-12 03:00,29.200,21.319,37.216,15.88
2014-06-12 04:00,29.204,21.304,37.288,15.96
2014-06-12 05:00,29.324,21.446,37.231,15.73
2014-06-12 06:00,29.411,21.582,37.059,15.41
2014-06-12 07:00,29.423,21.621,36.954,15.27
2014-06-12 08:00,29.779,22.043,36.750,14.56
2014-06-12 09:00,29.522,21.878,36.330,14.40
2014-06-12 10:00,29.465,21.795,36.427,14.59
2014-06-12 11:00,29.508,21.845,36.407,14.51
2014-06-12 12:00,29.509,21.848,36.400,14.50
2014-06-12 13:00,29.730,22.228,35.756,13.45
2014-06-12 14:00,29.772,22.289,35.675,13.30
2014-06-12 15:00,29.716,22.190,35.859,13.59
2014-06-12 16:00,29.692,22.112,36.086,13.89
2014-06-12 17:00,29.706,22.141,36.026,13.80
2014-06-12 18:00,29.789,22.256,35.896,13.54
2014-06-12 19:00,29.843,22.313,35.887,13.46
2014-06-12 20:00,29.485,21.688,36.948,15.18
2014-06-12 21:00,29.499,21.770,36.676,14.84
2014-06-12 22:00,29.547,21.854,36.535,14.61
2014-06-12 23:00,29.561,21.875,36.508,14.56
2014-06-13 00:00,29.554,21.845,36.602,14.68
2014-06-13 01:00,29.540,21.810,36.688,14.80
2014-06-13 02:00,29.533,21.798,36.705,14.83
2014-06-13 03:00,29.490,21.752,36.708,14.89
2014-06-13 04:00,29.470,21.718,36.762,14.98
2014-06-13 05:00,29.514,21.756,36.794,14.96
2014-06-13 06:00,29.561,21.813,36.762,14.86
2014-06-13 07:00,29.597,21.864,36.709,14.75
2014-06-13 08:00,29.641,21.929,36.631,14.60
2014-06-13 09:00,29.662,21.957,36.604,14.54
2014-06-13 10:00,29.665,21.980,36.522,14.44
2014-06-13 11:00,29.668,22.003,36.441,14.34
2014-06-13 12:00,29.670,22.031,36.333,14.21
2014-06-13 14:00,29.722,22.153,36.043,13.80
2014-06-13 15:00,29.798,22.274,35.855,13.48
2014-06-13 16:00,29.918,22.471,35.528,12.94
2014-06-13 17:00,29.930,22.538,35.288,12.64
2014-06-13 18:00,29.915,22.554,35.146,12.49
2014-06-13 19:00,29.934,22.604,35.006,12.30
2014-06-13 20:00,29.911,22.602,34.906,12.21
2014-06-13 21:00,29.778,22.414,35.151,12.67
2014-06-13 22:00,,,,
2014-06-13 23:00,29.544,22.123,35.387,13.25
2014-06-14 00:00,29.547,22.110,35.457,13.33
2014-06-14 01:00,29.602,22.189,35.357,13.14
2014-06-14 02:00,29.628,22.110,35.814,13.65
2014-06-14 03:00,29.688,22.036,36.386,14.25
2014-06-14 04:00,30.078,22.315,36.911,14.36
2014-06-14 05:00,30.450,22.622,37.235,14.26
2014-06-14 06:00,30.736,22.981,36.948,13.57
2014-06-14 07:00,30.676,22.980,36.684,13.34
2014-06-14 08:00,30.759,23.118,36.444,12.96
2014-06-14 09:00,30.616,23.125,35.758,12.34
2014-06-14 10:00,30.737,23.074,36.541,13.10
2014-06-14 11:00,30.547,22.813,36.838,13.68
2014-06-14 12:00,30.433,22.692,36.862,13.85
2014-06-14 13:00,30.451,22.669,37.037,14.03
2014-06-14 14:00,30.526,22.717,37.162,14.08
2014-06-14 15:00,30.616,22.821,37.113,13.91
2014-06-14 16:00,30.640,22.786,37.365,14.17
2014-06-14 17:00,30.746,22.899,37.351,14.02
2014-06-14 18:00,30.583,22.847,36.852,13.65
2014-06-14 19:00,30.657,22.856,37.140,13.89
2014-06-14 20:00,30.483,22.495,37.905,14.99
2014-06-14 21:00,30.262,22.274,37.866,15.23
2014-06-14 22:00,30.146,22.200,37.675,15.16
2014-06-14 23:00,30.137,22.227,37.527,15.00
2014-06-15 00:00,30.175,22.300,37.388,14.79
2014-06-15 01:00,30.352,22.481,37.404,14.58
2014-06-15 02:00,30.443,22.649,37.088,14.10
2014-06-15 03:00,30.485,22.742,36.875,13.80
2014-06-15 04:00,30.539,22.952,36.192,12.94
2014-06-15 05:00,30.540,22.941,36.244,13.00
2014-06-15 06:00,30.540,22.904,36.408,13.19
2014-06-15 07:00,30.567,22.971,36.230,12.95
2014-06-15 08:00,30.496,22.847,36.464,13.31
2014-06-15 09:00,30.295,22.571,36.771,13.92
2014-06-15 10:00,30.305,22.590,36.730,13.86
2014-06-15 11:00,30.341,22.639,36.684,13.76
2014-06-15 12:00,30.363,22.653,36.716,13.77
2014-06-15 13:00,30.363,22.633,36.802,13.87
2014-06-15 14:00,30.404,22.641,36.951,13.99
2014-06-15 15:00,30.495,22.679,37.189,14.15
2014-06-15 16:00,30.660,22.814,37.335,14.11
2014-06-15 17:00,30.644,22.777,37.422,14.23
2014-06-15 18:00,30.193,22.318,37.391,14.77
2014-06-15 19:00,29.339,21.556,36.859,15.27
2014-06-15 20:00,29.416,21.675,36.710,14.99
2014-06-15 21:00,29.323,21.523,36.926,15.37
2014-06-15 22:00,29.483,21.738,36.734,14.93
2014-06-15 23:00,29.593,21.914,36.484,14.49
2014-06-16 00:00,29.648,21.971,36.486,14.42
2014-06-16 01:00,29.783,22.156,36.296,14.02
2014-06-16 02:00,29.913,22.292,36.285,13.84
2014-06-16 03:00,29.963,22.283,36.545,14.08
2014-06-16 04:00,29.902,22.246,36.435,14.03
2014-06-16 05:00,29.870,22.209,36.451,14.09
2014-06-16 06:00,29.814,22.153,36.440,14.15
2014-06-16 08:00,29.495,21.857,36.300,14.40
2014-06-16 09:00,29.816,22.237,36.095,13.74
2014-06-16 10:00,29.919,22.434,35.698,13.14
2014-06-16 11:00,30.090,22.616,35.661,12.88
2014-06-16 12:00,30.409,22.886,35.899,12.76
2014-06-16 13:00,30.683,23.103,36.164,12.73
2014-06-16 14:00,30.604,23.111,35.762,12.36
2014-06-16 15:00,30.750,23.238,35.856,12.29
2014-06-16 16:00,30.649,22.993,36.508,13.17
2014-06-16 17:00,30.761,22.923,37.315,13.96
2014-06-16 18:00,30.474,22.616,37.365,14.38
2014-06-16 19:00,30.358,22.547,37.151,14.28
2014-06-16 20:00,30.236,22.493,36.844,14.08
2014-06-16 21:00,30.040,22.242,37.049,14.57
2014-06-16 22:00,30.070,22.275,37.039,14.52
2014-06-16 23:00,30.160,22.443,36.727,14.04
2014-06-17 00:00,30.384,22.633,36.894,13.95
2014-06-17 01:00,30.748,22.971,37.048,13.67
2014-06-17 02:00,30.821,23.225,36.241,12.65
2014-06-17 03:00,30.783,23.207,36.149,12.59
2014-06-17 04:00,30.781,23.169,36.311,12.78
2014-06-17 05:00,30.739,23.108,36.396,12.93
2014-06-17 06:00,30.786,23.153,36.412,12.89
2014-06-17 07:00,30.820,23.171,36.483,12.93
2014-06-17 08:00,30.871,23.212,36.528,12.92
2014-06-17 09:00,31.029,23.327,36.731,12.96
2014-06-17 10:00,31.201,23.417,37.107,13.18
2014-06-17 11:00,31.208,23.444,37.018,13.07
2014-06-17 12:00,31.003,23.291,36.773,13.04
2014-06-17 13:00,30.950,23.279,36.586,12.89
2014-06-17 14:00,30.866,23.212,36.505,12.90
2014-06-17 15:00,30.834,23.161,36.593,13.04
2014-06-17 16:00,30.833,23.132,36.713,13.18
2014-06-17 17:00,30.882,23.137,36.914,13.35
2014-06-17 18:00,30.962,23.174,37.114,13.48
2014-06-17 19:00,31.054,23.167,37.555,13.87
2014-06-17 20:00,31.027,22.979,38.239,14.68
2014-06-17 21:00,30.601,22.599,37.985,14.93
2014-06-17 22:00,30.224,22.235,37.867,15.28
2014-06-17 23:00,30.003,22.071,37.592,15.25
2014-06-18 00:00,29.936,22.064,37.336,15.04
2014-06-18 01:00,30.025,22.189,37.204,14.77
2014-06-18 02:00,30.277,22.455,37.182,14.42
2014-06-18 03:00,30.563,22.680,37.481,14.40
2014-06-18 04:00,30.627,22.717,37.603,14.46
2014-06-18 05:00,30.709,22.801,37.607,14.36
2014-06-18 06:00,30.815,22.907,37.618,14.24
2014-06-18 07:00,30.903,23.014,37.548,14.05
2014-06-18 08:00,30.831,22.972,37.408,13.98
2014-06-18 09:00,29.959,22.079,37.370,15.05
2014-06-18 10:00,29.655,21.846,37.029,15.05
2014-06-18 11:00,29.635,21.885,36.786,14.79
2014-06-18 12:00,29.667,21.891,36.898,14.88
2014-06-18 13:00,29.747,21.937,37.047,14.95
2014-06-18 14:00,29.839,22.011,37.142,14.94
2014-06-18 15:00,29.964,22.177,36.990,14.60
2014-06-18 16:00,30.014,22.242,36.934,14.47
2014-06-18 17:00,30.003,22.205,37.042,14.61
2014-06-18 18:00,30.121,22.366,36.881,14.27
2014-06-18 19:00,30.225,22.483,36.841,14.09
2014-06-18 20:00,30.456,22.779,36.585,13.50
2014-06-18 21:00,30.383,22.710,36.557,13.56
2014-06-18 22:00,30.316,22.611,36.691,13.80
2014-06-18 23:00,30.177,22.454,36.754,14.05
2014-06-19 00:00,30.264,22.468,37.073,14.31
2014-06-19 01:00,30.208,22.319,37.451,14.82
2014-06-19 03:00,30.197,22.294,37.508,14.90
2014-06-19 04:00,30.195,22.301,37.471,14.86
2014-06-19 05:00,30.244,22.399,37.275,14.57
2014-06-19 06:00,30.264,22.456,37.125,14.37
2014-06-19 07:00,30.297,22.510,37.040,14.23
2014-06-19 08:00,30.276,22.520,36.905,14.10
2014-06-19 09:00,30.247,22.510,36.822,14.04
2014-06-19 10:00,30.221,22.558,36.502,13.70
2014-06-19 11:00,30.213,22.564,36.442,13.64
2014-06-19 12:00,30.232,22.578,36.462,13.64
2014-06-19 13:00,30.173,22.475,36.647,13.93
2014-06-19 14:00,30.026,22.167,37.300,14.88
2014-06-19 15:00,29.711,21.802,37.442,15.46
2014-06-19 16:00,29.941,21.957,37.789,15.56
2014-06-19 17:00,29.731,21.501,38.694,16.89
2014-06-19 18:00,29.891,21.455,39.517,17.62
2014-06-19 19:00,29.912,21.428,39.698,17.80
2014-06-19 20:00,29.890,21.373,39.812,17.96
2014-06-19 21:00,29.948,21.671,38.930,16.87
2014-06-19 22:00,29.981,21.823,38.483,16.31
2014-06-19 23:00,29.987,21.781,38.672,16.52
2014-06-20 00:00,29.869,21.748,38.310,16.26
2014-06-20 01:00,29.756,21.715,37.974,16.02
2014-06-20 02:00,29.669,21.698,37.677,15.79
2014-06-20 03:00,29.576,21.524,37.972,16.26
2014-06-20 04:00,29.493,21.484,37.782,16.15
2014-06-20 05:00,29.555,21.647,37.401,15.62
2014-06-20 06:00,29.680,21.909,36.878,14.84
2014-06-20 07:00,29.814,22.107,36.636,14.38
2014-06-20 08:00,29.966,22.261,36.650,14.20
2014-06-20 09:00,30.002,22.323,36.545,14.03
2014-06-20 10:00,30.031,22.369,36.474,13.91
2014-06-20 11:00,30.450,22.579,37.417,14.47
2014-06-20 12:00,30.464,22.579,37.476,14.52
2014-06-20 13:00,30.387,22.547,37.278,14.39
2014-06-20 14:00,30.374,22.489,37.463,14.62
2014-06-20 15:00,30.407,22.504,37.543,14.67
2014-06-20 16:00,30.350,22.406,37.705,14.93
2014-06-20 17:00,30.350,22.278,38.227,15.53
2014-06-20 18:00,30.365,22.358,37.965,15.21
2014-06-20 19:00,30.362,22.345,38.005,15.26
2014-06-20 20:00,30.361,22.372,37.891,15.13
2014-06-20 21:00,30.366,22.374,37.905,15.14
2014-06-20 22:00,30.325,22.393,37.651,14.90
2014-06-20 23:00,30.315,22.357,37.752,15.03
2014-06-21 00:00,30.335,22.287,38.122,15.43
2014-06-21 01:00,30.257,22.336,37.592,14.92
2014-06-21 02:00,30.398,22.385,37.993,15.20
2014-06-21 03:00,29.536,21.555,37.687,15.98
2014-06-21 04:00,29.726,21.770,37.630,15.66
2014-06-21 05:00,29.843,21.881,37.677,15.56
2014-06-21 06:00,,,,
2014-06-21 07:00,30.251,22.274,37.819,15.19
2014-06-21 08:00,30.362,22.413,37.727,14.94
2014-06-21 09:00,30.342,22.393,37.722,14.96
2014-06-21 10:00,30.331,22.414,37.588,14.82
2014-06-21 11:00,29.768,22.012,36.832,14.67
2014-06-21 12:00,29.558,21.821,36.716,14.81
2014-06-21 13:00,29.512,21.761,36.767,14.93
2014-06-21 14:00,29.484,21.729,36.778,14.98
2014-06-21 15:00,29.550,21.748,36.979,15.13
2014-06-21 16:00,29.595,21.734,37.225,15.36
2014-06-21 17:00,29.762,21.828,37.551,15.52
2014-06-21 18:00,29.700,21.780,37.481,15.52
2014-06-21 19:00,29.921,21.959,37.697,15.48
2014-06-21 21:00,30.096,22.204,37.447,14.96
2014-06-21 22:00,30.119,22.230,37.438,14.92
2014-06-21 23:00,30.046,22.153,37.442,15.02
2014-06-22 00:00,30.002,22.125,37.367,14.99
2014-06-22 01:00,29.825,21.936,37.383,15.24
2014-06-22 02:00,29.754,21.903,37.217,15.14
2014-06-22 03:00,29.697,21.876,37.085,15.06
2014-06-22 04:00,29.609,21.817,36.952,15.02
2014-06-22 05:00,29.514,21.727,36.913,15.10
2014-06-22 06:00,29.439,21.692,36.735,14.99
2014-06-22 07:00,29.403,21.694,36.577,14.85
2014-06-22 08:00,29.397,21.687,36.579,14.86
2014-06-22 09:00,29.374,21.665,36.570,14.88
2014-06-22 10:00,29.441,21.741,36.543,14.76
2014-06-22 11:00,29.500,21.793,36.584,14.73
2014-06-22 12:00,29.542,21.805,36.716,14.83
2014-06-22 13:00,29.674,21.892,36.923,14.90
2014-06-22 14:00,29.346,21.598,36.724,15.10
2014-06-22 15:00,29.346,21.598,36.724,15.10
2014-06-22 16:00,29.262,21.398,37.160,15.73
2014-06-22 17:00,29.303,21.430,37.207,15.73
2014-06-22 18:00,29.302,21.390,37.358,15.91
2014-06-22 19:00,29.355,21.433,37.411,15.90
2014-06-22 20:00,29.370,21.430,37.488,15.97
2014-06-22 21:00,29.438,21.499,37.497,15.89
2014-06-22 22:00,29.471,21.516,37.570,15.93
2014-06-22 23:00,29.498,21.521,37.660,16.00
2014-06-23 00:00,29.542,21.572,37.642,15.92
2014-06-23 01:00,29.646,21.668,37.702,15.85
2014-06-23 02:00,29.672,21.690,37.723,15.84
2014-06-23 03:00,29.707,21.741,37.669,15.73
2014-06-23 04:00,29.732,21.812,37.492,15.49
2014-06-23 05:00,29.695,21.796,37.398,15.43
2014-06-23 06:00,29.676,21.799,37.309,15.35
2014-06-23 07:00,29.656,21.776,37.311,15.38
2014-06-23 08:00,29.675,21.813,37.248,15.28
2014-06-23 09:00,29.676,21.809,37.266,15.30
2014-06-23 10:00,29.684,21.815,37.275,15.30
2014-06-23 11:00,29.672,21.793,37.313,15.36
2014-06-23 12:00,29.700,21.787,37.455,15.49
2014-06-23 13:00,29.708,21.741,37.670,15.73
2014-06-23 14:00,29.673,21.671,37.801,15.93
2014-06-23 15:00,29.686,21.577,38.219,16.40
2014-06-23 16:00,29.727,21.631,38.181,16.30
2014-06-23 17:00,29.736,21.618,38.269,16.39
2014-06-23 18:00,29.771,21.657,38.257,16.33
2014-06-23 19:00,29.718,21.621,38.179,16.31
2014-06-23 20:00,29.678,21.650,37.901,16.04
2014-06-23 21:00,29.715,21.666,37.995,16.10
2014-06-23 22:00,29.777,21.772,37.834,15.83
2014-06-23 23:00,29.797,21.809,37.771,15.73
2014-06-24 00:00,29.838,21.872,37.698,15.59
2014-06-24 01:00,29.864,21.894,37.719,15.58
2014-06-24 02:00,29.885,21.924,37.682,15.51
2014-06-24 03:00,29.894,21.938,37.667,15.48
2014-06-24 04:00,29.892,21.936,37.664,15.48
2014-06-24 05:00,29.928,21.977,37.654,15.42
2014-06-24 06:00,29.965,22.016,37.652,15.37
2014-06-24 07:00,29.949,21.980,37.729,15.48
2014-06-24 08:00,29.902,21.907,37.822,15.65
2014-06-24 09:00,29.882,21.875,37.868,15.73
2014-06-24 10:00,29.884,21.876,37.870,15.73
2014-06-24 11:00,29.882,21.877,37.860,15.72
2014-06-24 12:00,29.862,21.846,37.897,15.79
2014-06-24 14:00,29.793,21.715,38.128,16.15
2014-06-24 15:00,29.791,21.713,38.126,16.15
2014-06-24 16:00,29.788,21.706,38.139,16.17
2014-06-24 17:00,29.799,21.702,38.204,16.23
2014-06-24 18:00,,,,
2014-06-24 19:00,29.842,21.726,38.288,16.27
2014-06-24 20:00,29.861,21.771,38.189,16.13
2014-06-24 21:00,29.871,21.803,38.106,16.02
2014-06-24 22:00,29.904,21.866,37.997,15.85
2014-06-24 23:00,29.928,21.919,37.886,15.69
2014-06-25 00:00,29.962,21.990,37.744,15.48
2014-06-25 01:00,29.989,22.045,37.636,15.32
2014-06-25 02:00,30.113,22.246,37.345,14.82
2014-06-25 03:00,30.310,22.468,37.270,14.48
2014-06-25 04:00,30.375,22.558,37.178,14.29
2014-06-25 05:00,30.390,22.624,36.961,14.02
2014-06-25 06:00,30.477,22.787,36.642,13.54
2014-06-25 07:00,30.541,22.888,36.487,13.28
2014-06-25 08:00,30.598,22.982,36.323,13.02
2014-06-25 09:00,30.640,23.051,36.204,12.83
2014-06-25 10:00,30.653,23.074,36.158,12.76
2014-06-25 11:00,30.651,23.067,36.182,12.79
2014-06-25 12:00,30.628,23.024,36.269,12.92
2014-06-25 13:00,30.602,22.976,36.371,13.07
2014-06-25 14:00,30.600,22.955,36.455,13.17
2014-06-25 15:00,30.584,22.882,36.706,13.48
2014-06-25 16:00,30.563,22.834,36.821,13.64
2014-06-25 17:00,30.576,22.838,36.861,13.67
2014-06-25 18:00,30.596,22.859,36.857,13.64
2014-06-25 19:00,30.591,22.811,37.042,13.86
2014-06-25 20:00,30.593,22.756,37.287,14.14
2014-06-25 21:00,30.585,22.795,37.088,13.92
2014-06-25 22:00,30.609,22.833,37.027,13.82
2014-06-25 23:00,30.693,22.898,37.119,13.82
2014-06-26 00:00,30.698,22.815,37.499,14.25
2014-06-26 01:00,30.709,22.866,37.328,14.04
2014-06-26 02:00,30.716,22.886,37.274,13.97